[[{"header":{"parameterUnit":"m.s-1","parameterCategory":1,"la1":30.2991,"la2":30.254,"lo1":-89.0895,"lo2":-89.0444,"dy":0.0017,"dx":0.0017,"nx":28,"ny":28,"refTime":"2024-07-13T21:00:00:Z","depth":0,"parameterNumber":2,"parameterNumberName":"U-component_of_WINDS"},"data":[0,0,0,0,0,0,0,0,0,0,0,0,0,0,0,0,0,0,0,0,0,0,0,0,0,0,0,0,0,0,0,0,0,0,0,0,0,0,0,0,0,0,0,0,0,0,0,0,0,0,0,0,0,0,0,0,0,0,2.5962,2.5962,0,2.6004,2.6004,2.6005,2.5957,2.5955,2.5954,2.5952,2.5998,2.6001,2.6004,0,0,0,0,0,0,0,0,0,0,0,0,0,2.5841,2.5843,2.5962,2.5962,2.5963,2.6004,2.6004,2.6005,2.5958,2.5955,2.5953,2.5951,2.5997,2.6001,2.6004,0,0,0,0,0,0,0,0,0,0,0,0,0,2.5889,2.5844,2.5962,2.5944,2.5943,2.6004,2.6004,2.6005,2.5958,2.5955,2.5953,2.595,2.5996,2.6001,2.6005,2.6086,0,0,2.6018,2.602,0,0,0,0,0,0,0,0,2.5887,2.5894,2.5946,2.5945,2.5944,2.5972,2.5979,2.6033,2.5959,2.5952,2.5952,2.5949,2.5992,2.5997,2.6011,2.6089,2.6091,2.6019,2.6021,2.6023,2.6025,0,0,0,0,0,0,0,2.5883,2.5892,2.5978,2.5947,2.5946,2.5934,2.5938,2.5989,2.5987,2.5953,2.5949,2.5955,2.5991,2.6007,2.6012,2.6091,2.6019,2.6023,2.6025,2.6027,2.6235,2.6238,0,0,0,0,0,0,2.5882,2.5889,2.5977,2.598,2.5908,2.5939,2.5943,2.5966,2.5986,2.5987,2.5957,2.5952,2.6,2.6006,2.6013,2.6107,2.6023,2.6027,2.603,2.6232,2.6236,2.6239,0,0,0,0,0,0,2.5879,2.589,2.5975,2.5934,2.5944,2.5943,2.597,2.5968,2.5984,2.599,2.5989,2.5973,2.5999,2.6007,2.6068,2.6108,2.6029,2.6033,2.6229,2.6233,2.6237,2.6298,0,0,0,0,0,0,2.5876,2.5889,2.592,2.5935,2.5946,2.6029,2.5973,2.5971,2.5991,2.5985,2.6005,2.6005,2.5997,2.6061,2.6072,2.6113,2.6037,2.6225,2.6231,2.6236,2.6292,2.6304,2.6314,0,0,0,0,0,2.5872,2.5937,2.5922,2.5933,2.5984,2.6032,2.6038,2.6026,2.5995,2.6025,2.6029,2.6005,2.6102,2.6068,2.608,2.6122,2.6222,2.6229,2.6235,2.6288,2.6302,2.6314,0,0,0,0,0,0,2.593,2.5939,2.5922,2.5994,2.6012,2.6023,2.6062,2.6042,2.6071,2.6064,2.605,2.6055,2.6118,2.6127,2.6088,2.6201,2.6157,2.6166,2.6193,2.6206,2.6217,2.6213,2.604,0,0,0,0,0,2.595,2.5987,2.5994,2.6056,2.6066,2.6063,2.6083,2.6072,2.6091,2.6099,2.6106,2.6126,2.6161,2.6184,2.6217,2.6294,2.6296,2.6329,2.634,2.6348,2.6356,2.6394,2.6408,2.626,2.626,2.626,0,0,2.5994,2.6004,2.6028,2.6068,2.6081,2.6119,2.607,2.6113,2.6141,2.6106,2.6162,2.6169,2.619,2.6258,2.6289,2.6267,2.6397,2.6357,2.6363,2.6366,2.6403,2.6417,2.6429,2.6265,2.6264,2.6263,0,0,2.6093,2.6105,2.6157,2.617,2.6189,2.6186,2.6198,2.6212,2.6214,2.6271,2.6244,2.6278,2.6339,2.6354,2.637,2.6472,2.645,2.6483,2.6539,2.6576,2.6588,2.6598,2.6632,2.6645,2.6491,2.6491,2.6491,0,2.6145,2.6201,2.6186,2.623,2.6248,2.6216,2.6268,2.6282,2.6311,2.6324,2.6299,2.6373,2.6385,2.6455,2.6479,2.6494,2.6507,2.648,2.6587,2.6597,2.6607,2.6639,2.6652,2.6495,2.6494,2.6494,2.6494,0,2.6263,2.6302,2.6342,2.6369,2.6391,2.6439,2.6432,2.6456,2.6443,2.6442,2.6499,2.6512,2.6545,2.6562,2.6551,2.663,2.6615,2.6589,2.6545,2.6625,2.6655,2.6667,2.65,2.6499,2.6498,2.6497,0,0,2.64,2.6416,2.6431,2.6441,2.6459,2.6489,2.6536,2.6566,2.6586,2.6608,2.6645,2.6696,2.6671,2.6689,2.6679,2.6713,2.6789,2.6682,2.6682,2.67,2.6875,2.6893,2.6907,2.6775,2.6778,2.678,2.6872,0,2.6497,2.6575,2.6562,2.6638,2.6673,2.6642,2.6682,2.6697,2.6698,2.6727,2.6728,2.6764,2.6729,2.6739,2.6771,2.6773,2.6824,2.6767,2.6809,2.6811,2.6803,2.6923,2.6943,2.703,2.6884,2.6886,2.6888,0,2.6621,2.6644,2.6723,2.6732,2.6747,2.6783,2.6808,2.6838,2.6854,2.6851,2.687,2.6853,2.6899,2.6854,2.6916,2.6877,2.6894,2.6898,2.6901,2.6903,2.6853,2.6927,2.7058,2.707,2.6906,2.6905,2.6904,0,2.671,2.6761,2.6814,2.6824,2.6838,2.6863,2.687,2.6883,2.6902,2.6925,2.6936,2.6966,2.6981,2.7004,2.6995,2.6964,2.7058,2.7013,2.7056,2.7056,2.7077,2.7075,2.721,2.7091,2.709,2.709,2.709,0,2.6819,2.6868,2.6853,2.6886,2.6939,2.6924,2.6977,2.6981,2.6992,2.7024,2.7001,2.7032,2.7019,2.7049,2.7043,2.7093,2.7101,2.71,2.7098,2.7101,2.7101,2.7111,2.7104,2.7094,2.7093,2.7092,2.7092,0,2.6927,2.6919,2.6974,2.6981,2.6984,2.7023,2.7029,2.7059,2.7057,2.7098,2.7107,2.7104,2.7138,2.7131,2.717,2.7165,2.7228,2.7219,2.7222,2.7219,2.7262,2.7257,2.7406,2.7424,2.7295,2.7297,2.7298,0,2.6996,2.7032,2.7042,2.7061,2.7069,2.7101,2.7118,2.7105,2.7124,2.7144,2.7171,2.7203,2.7227,2.7283,2.7284,2.7313,2.7303,2.7353,2.7307,2.7309,2.7301,2.7298,2.7301,2.7362,2.7363,2.7365,2.7366,0,2.7118,2.7112,2.7138,2.7162,2.7184,2.7203,2.722,2.7237,2.7224,2.7248,2.7281,2.73,2.7337,2.7368,2.7394,2.7401,2.7381,2.738,2.7391,2.7394,2.7393,2.7392,2.7245,2.7376,2.7375,2.7375,2.7374,2.7374,2.7207,2.7237,2.7247,2.7277,2.7287,2.7303,2.7331,2.7331,2.7358,2.7386,2.7376,2.7414,2.7427,2.746,2.747,2.7499,2.748,2.7497,2.7501,2.7505,2.7509,2.739,2.7504,2.7504,2.7504,2.7503,2.7503,0,2.7326,2.7331,2.7358,2.7381,2.7403,2.7381,2.7398,2.7419,2.7451,2.7465,2.7488,2.7525,2.7555,2.7558,2.7585,2.7608,2.7599,2.7616,2.7613,2.7614,2.7525,2.7512,2.7622,2.7622,2.7622,2.7622,2.7622,2.7622,2.739,2.7438,2.7433,2.7486,2.7491,2.7526,2.7537,2.7551,2.7561,2.7603,2.7627,2.7628,2.7637,2.7664,2.769,2.769,2.7701,2.772,2.7717,2.7633,2.7621,2.761,2.7597,2.7723,2.7723,2.7803,2.7804,2.7804]},{"header":{"parameterUnit":"m.s-1","parameterCategory":1,"la1":30.2991,"la2":30.254,"lo1":-89.0895,"lo2":-89.0444,"dy":0.0017,"dx":0.0017,"nx":28,"ny":28,"refTime":"2024-07-13T21:00:00:Z","depth":0,"parameterNumber":3,"parameterNumberName":"V-component_of_WINDS"},"data":[0,0,0,0,0,0,0,0,0,0,0,0,0,0,0,0,0,0,0,0,0,0,0,0,0,0,0,0,0,0,0,0,0,0,0,0,0,0,0,0,0,0,0,0,0,0,0,0,0,0,0,0,0,0,0,0,0,0,3.5209,3.521,0,3.5273,3.5273,3.5274,3.5238,3.5237,3.5235,3.5233,3.5292,3.5295,3.5299,0,0,0,0,0,0,0,0,0,0,0,0,0,3.505,3.5053,3.5209,3.521,3.5211,3.5273,3.5273,3.5274,3.5239,3.5236,3.5234,3.5232,3.5291,3.5295,3.5299,0,0,0,0,0,0,0,0,0,0,0,0,0,3.5117,3.5055,3.5209,3.52,3.52,3.5272,3.5273,3.5274,3.5239,3.5236,3.5234,3.5231,3.529,3.5295,3.5299,3.5381,0,0,3.5314,3.5316,0,0,0,0,0,0,0,0,3.5113,3.5123,3.5201,3.5201,3.5201,3.5245,3.5239,3.531,3.524,3.5224,3.5233,3.523,3.5278,3.5284,3.5301,3.5384,3.5387,3.5314,3.5317,3.5319,3.5321,0,0,0,0,0,0,0,3.5109,3.512,3.5234,3.5202,3.5202,3.5191,3.5198,3.5252,3.5265,3.5225,3.5223,3.5231,3.5278,3.5297,3.5302,3.5388,3.5314,3.5319,3.5322,3.5323,3.554,3.5543,0,0,0,0,0,0,3.5105,3.5116,3.5232,3.5236,3.515,3.5196,3.5204,3.5233,3.5264,3.5267,3.5233,3.5229,3.529,3.5297,3.5304,3.5402,3.5319,3.5324,3.5327,3.5538,3.5541,3.5544,0,0,0,0,0,0,3.5102,3.5116,3.5229,3.5176,3.5189,3.5202,3.5235,3.5236,3.5255,3.5271,3.5272,3.5251,3.5288,3.5298,3.5363,3.5404,3.5326,3.533,3.5534,3.5539,3.5543,3.5599,0,0,0,0,0,0,3.5098,3.5115,3.5148,3.5177,3.5192,3.5289,3.5238,3.5239,3.5264,3.526,3.5287,3.5289,3.5287,3.5356,3.5368,3.5409,3.5334,3.553,3.5536,3.5541,3.5593,3.5604,3.5614,0,0,0,0,0,3.5092,3.516,3.515,3.5164,3.5234,3.5291,3.53,3.5297,3.5268,3.53,3.531,3.5288,3.5398,3.5363,3.5376,3.5419,3.5528,3.5534,3.5541,3.5589,3.5602,3.5614,0,0,0,0,0,0,3.5133,3.5163,3.5153,3.5232,3.526,3.5285,3.5325,3.5312,3.5347,3.534,3.5334,3.534,3.5408,3.542,3.5381,3.55,3.5458,3.5467,3.549,3.5503,3.5513,3.5508,3.5338,0,0,0,0,0,3.5152,3.5198,3.5221,3.5289,3.5303,3.5312,3.5337,3.5333,3.536,3.5371,3.5386,3.5412,3.5452,3.5478,3.5516,3.5595,3.56,3.5631,3.5642,3.565,3.5658,3.57,3.5714,3.5565,3.5565,3.5565,0,0,3.519,3.5212,3.5241,3.5298,3.5318,3.5365,3.5322,3.5373,3.5406,3.5378,3.5441,3.5453,3.5481,3.5554,3.5586,3.5566,3.57,3.5658,3.5665,3.5668,3.5708,3.5722,3.5735,3.557,3.5569,3.5568,0,0,3.5283,3.5305,3.5364,3.5386,3.542,3.5425,3.5439,3.5467,3.5475,3.5538,3.5518,3.5557,3.5626,3.5647,3.5667,3.5769,3.575,3.5781,3.5835,3.5876,3.5888,3.5898,3.5934,3.5947,3.5789,3.5789,3.5789,0,3.5326,3.5397,3.5395,3.5448,3.5473,3.5452,3.551,3.5531,3.5574,3.5591,3.5568,3.5655,3.5672,3.5749,3.5774,3.5791,3.5806,3.5778,3.5887,3.5897,3.5907,3.5941,3.5954,3.5793,3.5792,3.5792,3.5792,0,3.5447,3.5496,3.5539,3.5584,3.5613,3.5669,3.5674,3.5704,3.5697,3.5705,3.5769,3.579,3.5831,3.5849,3.5842,3.5926,3.5912,3.5888,3.5845,3.5925,3.5956,3.5969,3.5798,3.5797,3.5796,3.5795,0,0,3.5566,3.5611,3.5626,3.5646,3.5682,3.5719,3.5773,3.5815,3.5841,3.5871,3.5915,3.5974,3.5953,3.5975,3.5971,3.6007,3.6086,3.5979,3.5979,3.5997,3.6178,3.6195,3.621,3.6074,3.6077,3.6079,3.6175,0,3.5661,3.5758,3.5758,3.5846,3.5891,3.5873,3.5919,3.5945,3.5953,3.5991,3.5999,3.6042,3.6011,3.6024,3.6059,3.6069,3.6122,3.6062,3.6113,3.6115,3.6106,3.6227,3.6245,3.6335,3.6187,3.619,3.6191,0,3.5784,3.5821,3.5915,3.5944,3.5963,3.6005,3.6044,3.6081,3.611,3.6113,3.6139,3.6129,3.6182,3.6139,3.621,3.617,3.6191,3.6199,3.6202,3.6206,3.6157,3.6233,3.6363,3.6377,3.6211,3.6209,3.6208,0,3.5861,3.5934,3.5999,3.6017,3.6053,3.6083,3.6099,3.6125,3.6151,3.6185,3.6201,3.624,3.626,3.629,3.629,3.6259,3.6362,3.6319,3.6365,3.6365,3.6387,3.6385,3.6522,3.6402,3.6402,3.6402,3.6401,0,3.5967,3.6024,3.6035,3.6075,3.6138,3.6138,3.62,3.6213,3.6236,3.6277,3.6263,3.6301,3.6299,3.6337,3.6337,3.6396,3.6406,3.6409,3.6408,3.641,3.6409,3.6423,3.6416,3.6405,3.6404,3.6404,3.6403,0,3.6063,3.6072,3.6142,3.6172,3.618,3.6226,3.6249,3.6287,3.6294,3.6346,3.6358,3.637,3.6414,3.6417,3.6468,3.6468,3.6539,3.6532,3.653,3.6529,3.6574,3.657,3.6723,3.6743,3.6611,3.6613,3.6614,0,3.6129,3.6173,3.6208,3.6236,3.6254,3.6298,3.6325,3.6326,3.6354,3.6391,3.6423,3.6466,3.6501,3.6572,3.6584,3.6622,3.6615,3.6666,3.662,3.6621,3.6615,3.6612,3.6616,3.6675,3.6676,3.6677,3.6678,0,3.6245,3.6248,3.6289,3.6331,3.6365,3.6397,3.6428,3.6451,3.6455,3.6488,3.6534,3.6561,3.6614,3.6657,3.6695,3.6708,3.6694,3.6693,3.6705,3.6707,3.6704,3.6706,3.6554,3.6689,3.6688,3.6687,3.6687,3.6686,3.6327,3.6366,3.6397,3.6443,3.6467,3.6496,3.6533,3.6546,3.6585,3.663,3.6628,3.6679,3.6705,3.6755,3.6772,3.6811,3.6793,3.6812,3.6816,3.682,3.6825,3.6699,3.6818,3.6817,3.6817,3.6817,3.6817,0,3.6442,3.6462,3.6504,3.6549,3.6584,3.6571,3.6604,3.6634,3.668,3.6707,3.6742,3.6795,3.6837,3.6853,3.6893,3.692,3.6915,3.6931,3.6928,3.6931,3.6839,3.6824,3.6935,3.6935,3.6935,3.6935,3.6935,3.6935,3.6506,3.657,3.6577,3.6653,3.6671,3.6723,3.6743,3.677,3.6792,3.6852,3.6888,3.6899,3.6921,3.6963,3.7,3.7003,3.7018,3.7037,3.7037,3.695,3.6938,3.6927,3.6912,3.704,3.704,3.7126,3.7127,3.7128]}]]